Location: Hermaringen
(48.5952°N, 10.2585°E)
Time: 13:42:04
(UTC+00:00)

A-11 Canister half - Pass Details

Date: 20 February 2026
Orbit: 1513 x 1687 km, 47.2° (Epoch: 11 March)

Event Time Altitude Azimuth Distance (km) Brightness Sun altitude
Rises 00:12:45 0° 282° (WNW) 4,916 - -51.5°
Reaches altitude 10° 00:15:57 10° 280° (W) 3,911 - -51.3°
Maximum altitude 00:25:53 72° 199° (SSW) 1,691 - -50.8°
Drops below altitude 10° 00:35:25 10° 118° (ESE) 3,769 - -50.2°
Sets 00:38:27 0° 116° (ESE) 4,730 - -50.0°
